Location: Munkebjergskolens Observatorium
(55.3864°N, 10.3987°E)
Time: 22:53:43
(UTC+01:00)

Envisat - Pass Details

Date: 05 December 2022
Orbit: 763 x 765 km, 98.2° (Epoch: 01 February)

Event Time Altitude Azimuth Distance (km) Brightness Sun altitude
Rises 04:02:59 0° 19° (NNE) 3,248 6.6 -36.0°
Reaches altitude 10° 04:05:27 10° 27° (NNE) 2,317 5.9 -35.6°
Enters shadow 04:08:37 31° 56° (ENE) 1,326 4.6 -35.2°
